Location: Zapote
(9.9191°N, 84.0597°W)
Time: 16:14:55
(UTC-06:00)

Courier 1B Rocket - Pass Details

Date: 04 March 2021
Orbit: 920 x 1202 km, 28.2° (Epoch: 11 April)

Event Time Altitude Azimuth Distance (km) Brightness Sun altitude
Rises 20:22:12 0° 299° (WNW) 4,084 9.0 -39.0°
Reaches altitude 10° 20:25:03 10° 301° (WNW) 3,126 8.2 -39.7°
Enters shadow 20:29:44 40° 306° (NW) 1,687 6.4 -40.9°
